GW4570 Weather Reports


time (UTC)temp
C
wind
direction
speed
KPH
gust
KPH
rain 1hr
cm
rain 24hr
cm
rain mn
cm
humidity
%
barometer
mb
20260502152223 11 339 9.7 12.9 0.00 0.00 0.00 48 1014.0
20260502151721 11 321 6.4 17.7 0.00 0.00 0.00 45 1014.0
20260502151218 10 273 3.2 11.3 0.00 0.00 0.00 48 1014.2
20260502150715 10 326 8.0 17.7 0.00 0.00 0.00 44 1014.1
20260502150212 10 289 6.4 9.7 0.00 0.00 0.00 49 1014.3
20260502130601 6 174 1.6 1.6 0.00 0.00 0.00 70 1014.2
20260502123543 6 303 0.0 1.6 0.00 0.00 0.00 76 1014.3
20260502123040 5 303 1.6 1.6 0.00 0.00 0.00 78 1014.5
20260502122537 5 303 1.6 3.2 0.00 0.00 0.00 80 1014.4
20260502122034 5 303 3.2 4.8 0.00 0.00 0.00 75 1014.5
20260502121532 5 302 1.6 1.6 0.00 0.00 0.00 80 1014.2
20260502121029 5 303 0.0 0.0 0.00 0.00 0.00 81 1014.3
20260502120525 5 302 0.0 1.6 0.00 0.00 0.00 83 1014.3
20260502115520 5 297 1.6 3.2 0.00 0.00 0.00 83 1014.4
20260502115016 5 297 0.0 0.0 0.00 0.00 0.00 87 1014.4
20260502114513 4 297 1.6 3.2 0.00 0.00 0.00 87 1014.1
20260502114009 4 298 0.0 0.0 0.00 0.00 0.00 89 1014.2
20260502113506 3 298 0.0 0.0 0.00 0.00 0.00 91 1014.3
20260502113005 3 298 0.0 0.0 0.00 0.00 0.00 91 1014.3
20260502112502 3 298 0.0 0.0 0.00 0.00 0.00 91 1014.3
20260502112000 2 298 0.0 0.0 0.00 0.00 0.00 92 1014.2
20260502111457 2 298 0.0 0.0 0.00 0.00 0.00 92 1014.0
20260502110954 2 298 0.0 0.0 0.00 0.00 0.00 92 1014.1
20260502110452 2 298 0.0 0.0 0.00 0.00 0.00 92 1014.1
20260502105949 2 298 0.0 0.0 0.00 0.00 0.00 91 1013.9
20260502105447 2 298 0.0 0.0 0.00 0.00 0.00 91 1014.0
20260502104944 2 298 0.0 0.0 0.00 0.00 0.00 91 1014.0
20260502104441 2 298 0.0 0.0 0.00 0.00 0.00 90 1013.9
20260502103938 2 298 0.0 0.0 0.00 0.00 0.00 90 1014.3
20260502103436 2 298 0.0 1.6 0.00 0.00 0.00 89 1014.3
20260502102933 2 298 0.0 0.0 0.00 0.00 0.00 90 1014.1
20260502102429 -17 0.0 0.0 0.00 0.00 0.00 1013.9
20260502101926 -17 0.0 0.0 0.00 0.00 0.00 1014.1
20260502101425 -17 0.0 0.0 0.00 0.00 0.00 1014.4
20260502100922 -17 0.0 0.0 0.00 0.00 0.00 1014.2
20260502100422 3 291 0.0 0.0 0.00 0.00 0.00 86 1014.4
20260502091356 3 291 0.0 0.0 0.00 0.00 0.00 86 1014.4
20260502090854 3 291 0.0 0.0 0.00 0.00 0.00 86 1014.3
20260502090350 4 291 0.0 1.6 0.00 0.00 0.00 84 1014.4
20260502071245 6 314 4.8 4.8 0.00 0.00 0.00 77 1013.9
20260502070743 5 327 3.2 3.2 0.00 0.00 0.00 80 1014.1
20260502070240 6 315 0.0 0.0 0.00 0.00 0.00 81 1013.9
20260502065739 6 299 1.6 1.6 0.00 0.00 0.00 80 1013.7
20260502065237 6 315 1.6 3.2 0.00 0.00 0.00 78 1014.2
20260502064735 6 296 0.0 0.0 0.00 0.00 0.00 79 1014.1
20260502064232 6 296 0.0 0.0 0.00 0.00 0.00 78 1014.1
20260502063729 6 318 1.6 3.2 0.00 0.00 0.00 77 1014.1
20260502063227 6 336 3.2 4.8 0.00 0.00 0.00 75 1014.0
20260502062724 6 338 3.2 4.8 0.00 0.00 0.00 75 1014.3
20260502062222 7 335 3.2 4.8 0.00 0.00 0.00 74 1014.1
20260502061720 7 309 4.8 4.8 0.00 0.00 0.00 72 1014.3
20260502061217 6 326 1.6 3.2 0.00 0.00 0.00 75 1014.2
20260502060712 7 331 3.2 4.8 0.00 0.00 0.00 72 1014.2
20260502060208 7 326 3.2 4.8 0.00 0.00 0.00 75 1014.4
20260502055706 7 326 4.8 4.8 0.00 0.00 0.00 71 1014.2
20260502055204 7 323 0.0 4.8 0.00 0.00 0.00 69 1014.0
20260502054703 7 322 3.2 4.8 0.00 0.00 0.00 71 1014.1
20260502054200 7 322 3.2 3.2 0.00 0.00 0.00 72 1014.1
20260502053657 7 322 0.0 0.0 0.00 0.00 0.00 70 1014.5
20260502053154 -17 0.0 0.0 0.00 0.00 0.00 1014.2
20260502052652 -17 0.0 0.0 0.00 0.00 0.00 1014.4
20260502052150 7 322 3.2 3.2 0.00 0.00 0.00 70 1014.3
20260502051648 7 322 3.2 3.2 0.00 0.00 0.00 70 1014.2
20260502051146 7 274 1.6 1.6 0.00 0.00 0.00 69 1014.4
20260502050642 7 326 4.8 6.4 0.00 0.00 0.00 71 1014.4
20260502050139 8 285 8.0 9.7 0.00 0.00 0.00 70 1014.4
20260502045635 8 285 8.0 9.7 0.00 0.00 0.00 70 1014.4
20260502045133 7 326 6.4 6.4 0.00 0.00 0.00 74 1014.5
20260502044629 8 324 9.7 12.9 0.00 0.00 0.00 73 1014.5
20260502044126 8 324 11.3 12.9 0.00 0.00 0.00 73 1014.5
20260502043624 8 307 9.7 12.9 0.00 0.00 0.00 75 1014.4
20260502043120 8 325 11.3 12.9 0.00 0.00 0.00 76 1014.6
20260502042614 8 324 8.0 12.9 0.00 0.00 0.00 76 1014.5
20260502042112 8 326 6.4 6.4 0.00 0.00 0.00 76 1014.3
20260502041609 8 306 8.0 11.3 0.00 0.00 0.00 75 1014.5
20260502041106 8 348 9.7 14.5 0.00 0.00 0.00 74 1014.4
20260502040603 8 334 11.3 12.9 0.00 0.00 0.00 74 1014.7
20260502040100 8 315 1.6 3.2 0.00 0.00 0.00 74 1014.3
20260502035556 8 321 6.4 6.4 0.00 0.00 0.00 73 1014.4
20260502035054 8 322 8.0 9.7 0.00 0.00 0.00 72 1014.5
20260502034551 8 303 3.2 3.2 0.00 0.00 0.00 71 1014.4
20260502034049 8 315 3.2 3.2 0.00 0.00 0.00 73 1014.6
20260502033548 8 315 1.6 3.2 0.00 0.00 0.00 72 1014.3
20260502033044 8 308 3.2 4.8 0.00 0.00 0.00 71 1014.4
20260502032540 8 282 1.6 3.2 0.00 0.00 0.00 71 1014.4
20260502032037 8 328 4.8 11.3 0.00 0.00 0.00 70 1014.3
20260502031535 8 332 6.4 9.7 0.00 0.00 0.00 69 1014.2
20260502031033 8 332 11.3 14.5 0.00 0.00 0.00 70 1014.4
20260502030531 8 323 9.7 12.9 0.00 0.00 0.00 70 1014.4
20260502030029 8 294 6.4 6.4 0.00 0.00 0.00 71 1014.4
20260502025526 8 328 6.4 11.3 0.00 0.00 0.00 69 1014.2
20260502025024 8 338 3.2 9.7 0.00 0.00 0.00 71 1014.2
20260502024521 8 346 6.4 6.4 0.00 0.00 0.00 69 1014.0
20260502024020 8 346 6.4 6.4 0.00 0.00 0.00 69 1014.0
20260502023517 8 350 4.8 6.4 0.00 0.00 0.00 72 1013.6
20260502023014 9 335 6.4 9.7 0.00 0.00 0.00 70 1013.6
20260502022510 9 325 6.4 12.9 0.00 0.00 0.00 71 1014.1
20260502022008 9 346 6.4 6.4 0.00 0.00 0.00 72 1013.9
20260502021505 9 258 6.4 6.4 0.00 0.00 0.00 72 1013.7
20260502021001 9 332 9.7 11.3 0.00 0.00 0.00 72 1013.5
20260502020500 9 345 8.0 11.3 0.00 0.00 0.00 73 1013.3
20260502015956 9 345 8.0 11.3 0.00 0.00 0.00 73 1013.2
20260502015454 9 334 6.4 9.7 0.00 0.00 0.00 72 1013.0
20260502014950 10 330 8.0 12.9 0.00 0.00 0.00 72 1012.9
20260502014447 10 318 8.0 9.7 0.00 0.00 0.00 74 1012.8
20260502013944 10 359 9.7 16.1 0.00 0.00 0.00 71 1013.0
20260502013439 10 351 8.0 12.9 0.00 0.00 0.00 73 1013.0
20260502012936 10 340 3.2 3.2 0.00 0.00 0.00 74 1013.2
20260502012434 10 315 0.0 0.0 0.00 0.00 0.00 74 1012.9
20260502011931 10 306 4.8 11.3 0.00 0.00 0.00 72 1013.0
20260502011427 10 308 8.0 12.9 0.00 0.00 0.00 73 1012.9
20260502010924 10 332 3.2 3.2 0.00 0.00 0.00 73 1012.6
20260502010421 10 322 0.0 0.0 0.00 0.00 0.00 73 1012.5
20260502005917 10 322 6.4 11.3 0.00 0.00 0.00 72 1012.7
20260502005415 10 326 9.7 14.5 0.00 0.00 0.00 71 1012.4
20260502004913 11 324 11.3 12.9 0.00 0.00 0.00 71 1012.3
20260502004409 11 313 8.0 11.3 0.00 0.00 0.00 69 1011.9
20260502003906 11 323 9.7 17.7 0.00 0.00 0.00 68 1011.4
20260502003403 11 314 8.0 12.9 0.00 0.00 0.00 69 1011.5
20260502002859 11 306 9.7 16.1 0.00 0.00 0.00 67 1011.2
20260502002357 11 320 8.0 9.7 0.00 0.00 0.00 66 1011.2
20260502001854 11 278 9.7 16.1 0.00 0.00 0.00 65 1011.0
20260502001352 12 291 14.5 27.4 0.00 0.00 0.00 63 1011.0
20260502000849 12 345 11.3 16.1 0.00 0.00 0.00 63 1011.1
20260502000347 12 319 11.3 20.9 0.00 0.00 0.00 63 1010.8
20260501235843 12 326 16.1 17.7 0.00 0.00 0.00 60 1010.9
20260501235339 12 329 11.3 17.7 0.00 0.00 0.00 59 1010.2
20260501234834 12 322 14.5 16.1 0.00 0.00 0.00 58 1010.7
20260501234331 12 317 12.9 20.9 0.00 0.00 0.00 57 1010.3
20260501233830 13 344 12.9 16.1 0.00 0.00 0.00 54 1010.0
20260501233327 13 283 8.0 16.1 0.00 0.00 0.00 52 1009.9
20260501232823 14 264 9.7 12.9 0.00 0.00 0.00 51 1009.9
20260501232320 13 309 8.0 17.7 0.00 0.00 0.00 49 1009.7
20260501231818 14 320 9.7 12.9 0.00 0.00 0.00 48 1009.8
20260501231315 15 316 9.7 16.1 0.00 0.00 0.00 46 1009.9
20260501230813 15 302 8.0 11.3 0.00 0.00 0.00 43 1009.5
20260501230312 16 302 11.3 14.5 0.00 0.00 0.00 40 1010.0
20260501225809 16 311 6.4 9.7 0.00 0.00 0.00 40 1009.8
20260501225307 16 288 3.2 9.7 0.00 0.00 0.00 38 1009.8
20260501224803 17 308 1.6 4.8 0.00 0.00 0.00 38 1009.7
20260501224300 16 300 6.4 11.3 0.00 0.00 0.00 35 1009.5
20260501223756 16 199 4.8 14.5 0.00 0.00 0.00 37 1009.6
20260501223253 16 20 4.8 9.7 0.00 0.00 0.00 36 1009.4
20260501222748 17 30 0.0 3.2 0.00 0.00 0.00 35 1009.6
20260501222246 17 284 1.6 4.8 0.00 0.00 0.00 36 1009.6
20260501221743 17 32 4.8 6.4 0.00 0.00 0.00 36 1009.8
20260501221240 16 356 1.6 3.2 0.00 0.00 0.00 35 1009.4
20260501220738 17 87 1.6 4.8 0.00 0.00 0.00 35 1009.6
20260501220235 17 64 1.6 4.8 0.00 0.00 0.00 35 1009.6
20260501215732 18 58 3.2 4.8 0.00 0.00 0.00 33 1010.0
20260501215227 17 72 0.0 1.6 0.00 0.00 0.00 35 1009.4
20260501214722 17 97 6.4 9.7 0.00 0.00 0.00 35 1009.7
20260501214219 18 196 1.6 4.8 0.00 0.00 0.00 33 1009.7
20260501213715 18 281 3.2 6.4 0.00 0.00 0.00 34 1009.5
20260501213211 18 20 3.2 3.2 0.00 0.00 0.00 34 1009.6
20260501212708 17 71 3.2 3.2 0.00 0.00 0.00 35 1009.7
20260501212204 17 148 3.2 11.3 0.00 0.00 0.00 33 1009.6
20260501211701 18 339 6.4 9.7 0.00 0.00 0.00 31 1009.5
20260501211158 18 265 6.4 11.3 0.00 0.00 0.00 33 1009.7
20260501210655 18 34 1.6 3.2 0.00 0.00 0.00 33 1009.7
20260501210152 18 250 1.6 11.3 0.00 0.00 0.00 30 1009.6
20260501205648 18 127 1.6 3.2 0.00 0.00 0.00 30 1009.4
20260501205146 17 272 4.8 9.7 0.00 0.00 0.00 33 1009.5
20260501204642 19 145 1.6 6.4 0.00 0.00 0.00 31 1009.5
20260501204138 19 35 3.2 6.4 0.00 0.00 0.00 35 1009.5
20260501203635 17 105 3.2 9.7 0.00 0.00 0.00 34 1009.6
20260501203132 18 137 3.2 6.4 0.00 0.00 0.00 34 1009.4
20260501202629 18 244 3.2 16.1 0.00 0.00 0.00 35 1009.2
20260501202126 18 251 6.4 6.4 0.00 0.00 0.00 33 1009.3
20260501201623 18 57 0.0 0.0 0.00 0.00 0.00 40 1009.5
20260501201119 18 118 0.0 1.6 0.00 0.00 0.00 40 1009.4
20260501200617 17 111 1.6 1.6 0.00 0.00 0.00 39 1009.4
20260501200114 17 145 1.6 1.6 0.00 0.00 0.00 41 1009.8
20260501195612 17 130 3.2 4.8 0.00 0.00 0.00 36 1009.6
20260501195107 19 35 3.2 4.8 0.00 0.00 0.00 38 1009.8
20260501194602 20 166 3.2 4.8 0.00 0.00 0.00 35 1009.7
20260501194058 19 306 1.6 1.6 0.00 0.00 0.00 38 1009.9
20260501193556 19 158 0.0 3.2 0.00 0.00 0.00 36 1009.9
20260501193055 19 153 1.6 4.8 0.00 0.00 0.00 36 1010.3
20260501192551 19 185 6.4 9.7 0.00 0.00 0.00 36 1010.2
20260501192049 19 248 1.6 3.2 0.00 0.00 0.00 43 1010.0
20260501191545 18 236 3.2 16.1 0.00 0.00 0.00 43 1010.2
20260501191043 18 160 3.2 9.7 0.00 0.00 0.00 35 1010.3
20260501190538 18 278 3.2 14.5 0.00 0.00 0.00 44 1010.5
20260501190034 18 285 3.2 4.8 0.00 0.00 0.00 37 1010.6
20260501185530 18 265 0.0 4.8 0.00 0.00 0.00 39 1010.8
20260501185026 18 162 9.7 14.5 0.00 0.00 0.00 43 1010.6
20260501184523 18 264 1.6 12.9 0.00 0.00 0.00 39 1010.7
20260501184023 18 166 1.6 3.2 0.00 0.00 0.00 42 1010.8
20260501183520 19 215 4.8 11.3 0.00 0.00 0.00 43 1010.9
20260501183016 18 101 1.6 3.2 0.00 0.00 0.00 37 1010.9
20260501182513 18 263 3.2 4.8 0.00 0.00 0.00 41 1011.1
20260501182010 18 331 1.6 4.8 0.00 0.00 0.00 43 1011.2
20260501181508 18 3 3.2 3.2 0.00 0.00 0.00 44 1011.3
20260501181004 18 70 0.0 4.8 0.00 0.00 0.00 38 1011.2
20260501180502 18 110 0.0 3.2 0.00 0.00 0.00 39 1011.4
20260501175957 18 171 1.6 6.4 0.00 0.00 0.00 37 1011.3
20260501175455 18 321 3.2 4.8 0.00 0.00 0.00 40 1011.4
20260501174951 18 276 3.2 4.8 0.00 0.00 0.00 40 1011.3
20260501174449 18 124 0.0 1.6 0.00 0.00 0.00 43 1011.3
20260501173946 18 314 1.6 3.2 0.00 0.00 0.00 39 1011.4
20260501173444 17 258 1.6 4.8 0.00 0.00 0.00 36 1011.4
20260501172939 17 190 3.2 4.8 0.00 0.00 0.00 38 1011.7
20260501172435 16 180 6.4 9.7 0.00 0.00 0.00 43 1011.5
20260501171931 16 90 3.2 6.4 0.00 0.00 0.00 41 1011.8
20260501171427 16 143 8.0 12.9 0.00 0.00 0.00 45 1011.7
20260501170924 16 263 0.0 0.0 0.00 0.00 0.00 38 1011.9
20260501170421 15 170 6.4 12.9 0.00 0.00 0.00 48 1012.2
20260501165919 16 126 4.8 14.5 0.00 0.00 0.00 50 1012.2
20260501165416 16 259 3.2 3.2 0.00 0.00 0.00 45 1011.9
20260501164914 15 143 6.4 11.3 0.00 0.00 0.00 44 1012.3
20260501164411 15 124 6.4 9.7 0.00 0.00 0.00 42 1012.5
20260501163908 15 243 1.6 6.4 0.00 0.00 0.00 49 1012.4
20260501163404 15 231 0.0 11.3 0.00 0.00 0.00 55 1012.5
20260501162900 14 125 8.0 11.3 0.00 0.00 0.00 48 1012.7
20260501162357 14 175 4.8 4.8 0.00 0.00 0.00 47 1012.5
20260501161854 13 150 6.4 9.7 0.00 0.00 0.00 53 1012.8
20260501161351 13 264 1.6 3.2 0.00 0.00 0.00 51 1012.7
20260501160848 13 216 0.0 0.0 0.00 0.00 0.00 57 1012.8
20260501160344 13 95 3.2 3.2 0.00 0.00 0.00 59 1013.0
20260501155842 14 187 3.2 4.8 0.00 0.00 0.00 59 1013.0
20260501155338 13 116 3.2 3.2 0.00 0.00 0.00 62 1013.2